BSAT-3B

Last updated on Wed Sep 09 2026 00:02:59 GMT+0000 (Coordinated Universal Time)

1 37207U 10056B 26251.58692006 -.00000371 00000+0 00000+0 0 9993 2 37207 0.0760 255.3418 0004195 311.8173 101.6183 1.00270148 52937
UTC large
Height (km)
Speed (km/s)
/
Latitude / Longitude
Inclination (degrees)
Orbital Period (minutes)
Azimuth
Elevation
Range (km)
Doppler Factor

Next 0 passes for location: London (51.5072 / 0.1276)

No passes found over London.
BSAT-3B